Showing default

BUGSAT 1, 40014

Orbit data source: Space-Track

BUGSAT 1, 40014 is a payload satellite owned by Satellogic SA (AR) in SSO that was launched on Thu, 19 Jun 2014 UTC via a DNEPR launch vehicle from the Orenburg, Russia (OREN). Payload-class satellites include a variety of spacecraft equipped with specific instruments for various scientific and technological missions. These include communications satellites like Starlink; space stations such as the ISS; scientific satellites like the Hubble; Earth observation satellites from companies like Planet Labs, Umbra, and HawkEye 360; GPS; miniature CubeSats for education and research; and military/defense satellites.

Loading next visibility...
Identifier
40014, 2014-033E
Orbit
SSO
Country
Flag of ARAR / ARGN
Related business
Manufacturer
Satellogic SA
Mission
Operational Commercial Imaging
Bus & Motor
BUGSAT, Unknown motor
Mass
22 kg wet, 22 kg dry
Launch date (UTC)
2014-06-19 (12 years ago)
Launch vehicle
DNEPR
Launch site
Orenburg, Russia (OREN)
Object type
Payload
Rocket body
Debris
Shape & HBR
Box, 1.0 m
Radar Cross Section
0.263 m², Medium (>0.1 m² and < 1m²)

Expand to show TLE details & history
Last TLE update: 10 hours ago

TLE from 10 hours ago
0 BUGSAT 1
1 40014U 14033E   26256.28392434  .00004840  00000-0  25126-3 0  9991
2 40014  98.0430 354.0350 0026362 238.2952 121.5709 15.16353815669188
Epoch: 2026-09-13T06:48Z
TLE epoch observation values (Epoch: 2026-09-13T06:48:51.062Z)
Latitude
-0.00005°
Longitude
-100.45854°
Altitude
529.491 km
Speed
7.593 km/s
True Right ascension
23h 36m 08s
True Declination
0° 00' 00"
Sunlit
Object was in full shadow at epoch
Visualization orbit readout
Latitude
Unknown
Longitude
Unknown
Altitude
Unknown
Speed
Unknown
Apparent Right ascension
Unknown
Apparent Declination
Unknown
Sunlit
N/A
Visualization observer readout
Local Sidereal Time
09:04:27
Azimuth
Unknown
Elevation
Unknown
Doppler factor
Unknown
Orbital elements
Apogee altitude
532.039 km
Perigee altitude
495.702 km
Semi-major axis
6,892.008 km
Eccentricity
0.00264
Inclination
98.043°
RAAN
354.035°
Arg. of periapsis
238.2952°
True anomaly
121.82783°
Mean anomaly
121.5709°
Eccentric anomaly
121.69941°
Mean motion
3.79336 °/min
Orbital period
94.9 mins
BSTAR
0.00025126
Loading maneuver chart data...
Computing Atmospheric mass density...
Loading historical data...
Loading historical data...
Loading historical data...
Loading historical data...
Loading historical data...
Loading historical data...
Loading historical data...

Documentation

Showing up to 5 results
|